Location: Saint-Br�vin-les-Pins
(47.2500°N, 2.1670°W)
Time: 19:56:12
(UTC+02:00)

Envisat - Visible Passes

Search period start: 22 April 2019 00:00
Search period end: 02 May 2019 00:00
Orbit: 764 x 766 km, 98.2° (Epoch: 22 April)

Date Brightness Start Highest point End Pass type
(mag) Time Alt. Az. Time Alt. Az. Time Alt. Az.
22 Apr 5.1 21:30:12 10° SSW 21:34:37 29° W 21:39:03 10° NNW visible
24 Apr 5.7 21:57:00 10° SW 22:00:25 18° W 22:03:50 10° NW visible
26 Apr 6.3 22:25:47 10° W 22:26:18 10° W 22:26:50 10° WNW visible
27 Apr 5.6 21:45:09 10° SW 21:49:03 22° W 21:52:59 10° NW visible
29 Apr 5.9 22:12:35 10° WSW 22:14:55 13° W 22:17:15 10° WNW visible
